Hourly Data Report for September 01, 2017

All times are specified in Local Standard Time (LST). Add 1 hour to adjust for Daylight Saving Time where and when it is observed.

BATHURST A
NEW BRUNSWICK

47°37'47.000" N
65°44'20.000" W
58.80 m
8100505
71574
ZBF

Download Data

Hourly Data (September 2017)
Hourly Data Report for September 1, 2017
Temp Definition
°C
Dew Point Temp Definition
°C
Rel Hum Definition
%
Wind Dir Definition
10's deg

Wind Spd Definition
km/h
Visibility Definition
km
Stn Press Definition
kPa
Hmdx Definition


Wind Chill Definition


Weather Definition


TIME
00:00 Legend Double Dagger 9.7 4.4 70 28 15 24.1 99.67     LegendNANA
01:00 Legend Double Dagger 8.9 3.9 71 29 9 24.1 99.68     LegendNANA
02:00 Legend Double Dagger 8.8 4.6 75 36 2 24.1 99.65     Cloudy
03:00 Legend Double Dagger 8.6 4.6 76 26 13 24.1 99.64     LegendNANA
04:00 Legend Double Dagger 9.4 3.1 65 29 17 24.1 99.65     LegendNANA
05:00 Legend Double Dagger 8.5 3.8 72 24 4 24.1 99.65     Mostly Cloudy
06:00 Legend Double Dagger 9.3 3.1 65 27 16 24.1 99.68     LegendNANA
07:00 Legend Double Dagger 9.3 2.8 64 28 18 24.1 99.74     LegendNANA
08:00 Legend Double Dagger 9.6 4.0 68 27 10 24.1 99.73     Mostly Cloudy
09:00 Legend Double Dagger 10.8 2.6 57 27 26 24.1 99.72     LegendNANA
10:00 Legend Double Dagger 11.7 3.4 56 25 22 24.1 99.69     LegendNANA
11:00 Legend Double Dagger 13.0 4.2 55 25 22 24.1 99.67     Mostly Cloudy
12:00 Legend Double Dagger 13.3 3.9 52 25 23 24.1 99.66     LegendNANA
13:00 Legend Double Dagger 13.4 3.8 52 24 24 24.1 99.70     LegendNANA
14:00 Legend Double Dagger 13.3 3.8 52 27 17 24.1 99.72     Mostly Cloudy
15:00 Legend Double Dagger 12.4 4.7 59 27 13 24.1 99.75     LegendNANA
16:00 Legend Double Dagger 14.0 5.0 54 30 5 24.1 99.78     LegendNANA
17:00 Legend Double Dagger 13.2 4.3 54 32 10 24.1 99.84     Mostly Cloudy
18:00 Legend Double Dagger 12.6 5.2 60 30 10 24.1 99.92     LegendNANA
19:00 Legend Double Dagger 12.2 6.8 69 32 12 24.1 100.04     LegendNANA
20:00 Legend Double Dagger 11.2 7.0 75 31 24 24.1 100.16     Rain Showers
21:00 Legend Double Dagger 10.2 7.0 81 30 17 24.1 100.23     Rain Showers
22:00 Legend Double Dagger 9.8 6.5 80 29 16 24.1 100.29     LegendNANA
23:00 Legend Double Dagger 9.2 6.1 80 29 13 24.1 100.34     Mainly Clear

Notes on Data Quality.

Legend

  • E = Estimated
  • M = Missing
  • NA = Not Available
  • ‡ = Partner data that is not subject to review by the National Climate Archives
Date modified: